FW7205 Weather Reports


time (UTC)temp
F
wind
direction
speed
knots
gust
knots
rain 1hr
in
rain 24hr
in
rain mn
in
humidity
%
barometer
mb
20260831060114 81 0 0.0 0.9 0.00 0.11 0.00 77 1014.5
20260831054605 82 0 0.0 0.9 0.00 0.11 0.00 77 1014.5
20260831053105 82 0 0.0 1.7 0.00 0.11 0.00 76 1014.4
20260831051606 83 0 0.0 0.9 0.00 0.11 0.00 75 1014.3
20260831050103 83 0 0.0 0.9 0.00 0.11 0.00 75 1014.2
20260831044608 83 0 0.0 0.9 0.00 0.11 0.11 74 1014.2
20260831043103 84 0 0.0 1.7 0.00 0.11 0.11 73 1014.0
20260831041645 84 0 0.0 0.9 0.00 0.11 0.11 72 1014.1
20260831040109 84 209 0.0 0.9 0.00 0.11 0.11 70 1014.2
20260831034606 85 0 0.0 0.9 0.00 0.11 0.11 69 1013.9
20260831033102 85 0 0.0 1.7 0.00 0.11 0.11 67 1013.7
20260831031559 85 200 0.0 1.7 0.00 0.11 0.11 66 1013.4
20260831030108 85 0 0.0 1.7 0.00 0.11 0.11 65 1013.4
20260831024621 85 115 0.0 0.9 0.00 0.11 0.11 64 1013.2
20260831023113 84 136 0.0 1.7 0.00 0.11 0.11 63 1012.9
20260831021604 84 0 0.0 0.9 0.02 0.11 0.11 61 1012.6
20260831020104 85 0 0.0 0.0 0.06 0.11 0.11 64 1012.3
20260831014601 87 0 0.0 0.0 0.09 0.17 0.11 61 1012.3
20260831013110 88 0 0.0 0.0 0.11 0.17 0.11 60 1012.0
20260831011600 89 0 0.0 0.0 0.09 0.15 0.09 60 1011.9
20260831010122 91 0 0.0 0.0 0.05 0.11 0.05 57 1012.0
20260831004601 93 0 0.0 0.9 0.02 0.09 0.02 52 1011.8
20260831003106 94 0 0.0 1.7 0.00 0.07 0.00 50 1011.8
20260831001607 94 0 0.0 1.7 0.00 0.07 0.00 47 1011.9
20260831000118 95 136 0.0 2.6 0.00 0.07 0.00 46 1012.0
20260830234603 95 0 0.0 4.3 0.00 0.07 0.00 43 1012.0
20260830233104 96 252 0.0 1.7 0.00 0.07 0.00 43 1011.9
20260830231603 97 0 0.9 3.5 0.00 0.07 0.00 42 1012.0
20260830230107 97 134 0.0 1.7 0.00 0.07 0.00 42 1012.1
20260830224605 98 125 0.0 3.5 0.00 0.07 0.00 43 1011.9
20260830223134 98 129 0.9 3.5 0.00 0.07 0.00 42 1012.0
20260830221608 98 0 0.0 3.5 0.00 0.07 0.00 42 1012.3
20260830220107 98 133 0.0 2.6 0.00 0.07 0.00 40 1012.2
20260830214606 98 0 0.9 3.5 0.00 0.07 0.00 42 1012.3
20260830213105 98 134 0.9 2.6 0.00 0.07 0.00 41 1012.7
20260830211607 98 256 0.0 3.5 0.00 0.07 0.00 40 1012.5
20260830210114 98 0 0.0 2.6 0.00 0.07 0.00 41 1012.7
20260830204605 98 0 0.0 3.5 0.00 0.07 0.00 41 1012.9
20260830203106 97 134 0.0 2.6 0.00 0.07 0.00 43 1013.2
20260830201613 98 235 0.9 2.6 0.00 0.07 0.00 44 1013.5
20260830200106 98 0 0.9 3.5 0.00 0.07 0.00 46 1013.7
20260830194610 97 108 0.0 3.5 0.00 0.07 0.00 46 1014.0
20260830193106 98 68 0.0 2.6 0.00 0.07 0.00 46 1014.1
20260830191610 98 0 0.0 2.6 0.00 0.07 0.00 48 1014.3
20260830190110 98 105 0.0 3.5 0.00 0.07 0.00 48 1014.6
20260830184621 97 0 0.9 3.5 0.00 0.07 0.00 48 1014.7
20260830183130 96 100 0.0 2.6 0.00 0.07 0.00 49 1014.9
20260830181602 95 161 0.9 3.5 0.00 0.07 0.00 50 1015.5
20260830174605 94 148 0.0 3.5 0.00 0.07 0.00 52 1015.7
20260830173107 93 0 0.0 2.6 0.00 0.07 0.00 57 1015.9
20260830171638 92 0 0.0 2.6 0.00 0.07 0.00 58 1016.1
20260830170103 91 0 0.0 1.7 0.00 0.07 0.00 61 1016.3
20260830164603 90 0 0.0 2.6 0.00 0.07 0.00 63 1016.6
20260830163057 89 0 0.0 1.7 0.00 0.07 0.00 67 1016.5
20260830161601 87 0 0.0 1.7 0.00 0.07 0.00 70 1016.6
20260830160104 86 0 0.0 1.7 0.00 0.07 0.00 73 1016.4
20260830154600 85 0 0.0 3.5 0.00 0.07 0.00 76 1016.6
20260830153100 83 0 0.0 1.7 0.00 0.07 0.00 81 1016.6
20260830151613 83 0 0.0 3.5 0.00 0.07 0.00 83 1016.4
20260830150106 82 0 0.0 1.7 0.00 0.07 0.00 86 1016.4
20260830144604 81 105 0.0 2.6 0.00 0.07 0.00 89 1016.6
20260830143107 80 89 0.0 2.6 0.00 0.07 0.00 91 1016.4
20260830141606 79 0 0.0 2.6 0.00 0.07 0.00 92 1016.4
20260830140111 78 0 0.0 1.7 0.00 0.07 0.00 92 1016.5
20260830134604 78 0 0.0 0.0 0.00 0.07 0.00 92 1016.4
20260830133107 77 0 0.0 0.9 0.00 0.07 0.00 92 1016.4
20260830131603 76 0 0.0 0.0 0.00 0.07 0.00 91 1016.1
20260830130114 76 0 0.0 0.0 0.00 0.07 0.00 91 1016.1
20260830124603 76 0 0.0 0.9 0.00 0.07 0.00 90 1015.9
20260830123104 76 0 0.0 0.0 0.00 0.07 0.00 90 1015.8
20260830121604 76 0 0.0 0.0 0.00 0.07 0.00 90 1015.3
20260830120109 76 0 0.0 0.0 0.00 0.07 0.00 90 1015.4
20260830114606 76 0 0.0 0.9 0.00 0.07 0.00 89 1015.5
20260830113105 76 0 0.0 0.0 0.00 0.07 0.00 89 1015.1
20260830111606 77 0 0.0 0.0 0.00 0.07 0.00 89 1015.2
20260830110105 77 0 0.0 0.0 0.00 0.07 0.00 88 1014.8
20260830104604 77 0 0.0 0.0 0.00 0.07 0.00 88 1014.8
20260830103105 77 0 0.0 0.0 0.00 0.07 0.00 88 1014.8
20260830101606 77 0 0.0 0.0 0.00 0.07 0.00 88 1014.6
20260830100110 78 0 0.0 0.0 0.00 0.07 0.00 87 1014.8
20260830094604 78 0 0.0 0.0 0.00 0.07 0.00 87 1014.8
20260830093101 78 0 0.0 0.0 0.00 0.07 0.00 87 1014.6
20260830091610 78 0 0.0 0.9 0.00 0.07 0.00 87 1014.7
20260830090111 78 0 0.0 0.9 0.00 0.07 0.00 86 1014.5
20260830084636 79 0 0.0 0.0 0.00 0.07 0.00 85 1014.5
20260830083107 79 0 0.0 0.9 0.00 0.07 0.00 85 1014.6
20260830081637 79 0 0.0 0.0 0.00 0.07 0.00 84 1014.5
20260830080109 79 0 0.0 0.0 0.00 0.07 0.00 84 1014.4
20260830074625 80 0 0.0 0.9 0.00 0.07 0.00 84 1014.7
20260830073101 80 0 0.0 0.0 0.00 0.07 0.00 83 1014.9
20260830071607 80 0 0.0 0.9 0.00 0.07 0.00 83 1014.9
20260830064605 81 0 0.0 0.9 0.00 0.07 0.00 81 1014.8
20260830063101 81 0 0.0 0.9 0.00 0.07 0.00 81 1014.8
20260830061600 81 0 0.0 1.7 0.00 0.07 0.00 80 1015.0